{"data":{"norad_id":56818,"epoch":"2026-09-20T05:19:20.273952Z","epoch_age_seconds":141660,"freshness":"FRESH","line1":"1 56818U 23078BD  26263.22176243  .00010201  00000+0  86042-3 0  9990","line2":"2 56818  70.0006 213.7913 0003735 271.8286  88.2445 14.98375220182510","mean_motion":14.9837522,"eccentricity":0.0003735,"inclination_deg":70.0006,"raan_deg":213.7913,"arg_perigee_deg":271.8286,"mean_anomaly_deg":88.2445,"bstar":0.00086042,"rev_number":18251,"period_min":96.1040986783,"perigee_km":569.32021052535,"apogee_km":574.51190015769,"semimajor_km":6950.0530553415,"source":"CELESTRAK","updated_at":"2026-09-21T09:00:33.514197Z"}}